Lid_Strength_Index
1 1 0 0 0 0 0 0 -0 -0 -1 -0 -0 -0 -0 0 -0 -0 -0 -0 0 0 -0 0 0 -0 0 0 0 0 1 1 3 1 1 -0 -1 -1 -1 -2 -1 -1 -1
-0 -0 -0 -0 0 0 0 -0 -0 -0 -1 -0 -0 -0 0 0 -0 0 0 0 0 0 0 0 0 0 0 0 0 1 0 0 2 3 1 1 1 -0 -1 -1 -0 -1 -1
-0 -0 -0 -0 -0 -0 -0 -0 -0 -0 -1 -0 -0 -0 -0 0 0 -0 -0 0 0 0 0 0 0 0 0 1 0 1 1 1 1 2 2 0 0 0 0 -1 -0 -1 -1
0 0 0 0 -0 -0 -1 -1 -0 -1 -0 -0 -0 -0 -0 -0 -0 -0 0 0 0 0 0 0 0 0 1 1 1 1 1 1 1 2 2 2 1 -0 0 1 2 0 1
0 0 0 -0 -0 -0 -0 -1 -1 -1 -1 -1 -0 -1 -0 -0 0 -0 -0 0 0 0 0 0 -0 0 1 1 1 1 1 1 2 2 2 2 2 2 2 1 2 1 1
0 1 -0 -0 -0 -0 -0 -0 -0 -0 -0 -1 -0 -0 -0 0 1 3 1 0 0 0 1 0 -0 0 0 2 3 2 1 1 2 2 2 2 2 1 1 1 2 3 4
0 0 0 0 0 0 -0 -0 -0 -0 -0 0 0 -0 0 -0 2 2 1 -0 0 0 0 1 1 0 0 0 2 3 2 2 2 1 2 2 2 1 1 1 1 2 2
1 0 0 0 0 0 0 0 0 -0 0 0 0 0 0 -0 2 2 1 -0 0 0 0 0 1 0 0 0 0 1 0 0 0 0 0 1 0 -0 -0 1 1 1 1
1 1 0 0 0 0 1 0 0 0 1 0 0 0 0 0 2 3 1 0 0 0 0 -0 0 0 2 3 1 1 1 1 2 3 2 2 2 3 2 0 2 2 3
1 1 0 0 1 1 1 0 0 0 0 0 0 0 1 0 2 3 2 0 1 1 0 0 1 1 3 4 1 1 2 1 1 0 0 1 2 1 4 -0 1 2 3
0 0 1 0 1 0 0 0 0 1 1 1 1 0 0 0 0 3 4 0 1 1 1 1 0 3 4 5 4 1 1 1 1 1 1 1 0 0 0 0 -0 1 2
0 0 0 0 0 0 0 0 1 1 1 1 1 1 0 -0 2 2 4 4 1 1 1 1 0 6 6 6 5 4 5 4 1 1 1 2 1 1 1 0 -0 -0 -0
1 1 0 0 1 0 1 1 1 1 2 2 2 2 2 1 1 2 4 5 4 3 1 1 4 5 6 5 5 4 5 1 1 2 2 2 1 1 0 0 0 -0 -0
1 1 1 1 1 1 1 1 1 2 2 2 2 2 2 2 1 1 0 0 2 1 1 1 2 3 4 2 2 1 1 1 1 2 2 1 1 1 1 1 1 1 1
1 1 1 1 1 1 1 1 1 1 2 2 2 2 2 2 1 4 5 2 1 1 4 1 1 1 2 1 1 1 1 1 2 1 2 2 2 1 1 1 1 2 3
2 1 1 2 2 2 2 1 4 6 7 7 9 6 1 4 9 9 10 10 10 9 5 2 2 2 2 2 2 2 1 2 1 1 1 2 2 2 2 2 1 2 3
2 2 2 3 2 2 2 3 3 2 4 6 7 7 9 9 10 10 11 11 10 9 5 2 2 2 2 2 2 2 2 1 1 2 2 2 2 2 2 2 2 2 2
1 5 2 1 2 2 3 3 2 2 2 2 4 6 8 9 9 10 11 9 2 4 2 2 2 2 2 2 2 2 1 1 1 1 2 2 2 2 2 2 2 2 2
2 3 3 2 1 3 2 2 2 2 1 2 1 3 5 8 9 9 8 5 5 4 2 2 1 2 2 2 1 1 1 1 1 1 1 1 1 2 2 2 2 5 3
3 3 4 3 3 3 2 2 2 2 3 3 3 3 3 5 4 5 6 7 7 7 6 5 3 1 1 1 1 1 1 1 1 1 1 1 1 1 2 2 2 2 2
4 4 4 3 3 3 3 3 2 2 3 3 3 4 7 4 5 5 6 7 8 7 7 7 6 4 1 1 1 2 2 1 1 1 1 1 1 2 1 1 2 2 2
4 4 3 3 3 3 3 3 3 3 3 3 2 3 7 4 4 5 5 5 6 7 7 7 7 8 8 8 7 7 6 4 2 1 2 1 1 2 1 1 2 2 2
3 3 3 3 3 4 4 3 3 3 3 3 2 3 3 4 4 4 5 5 5 6 7 8 8 8 8 8 8 9 10 10 11 11 8 5 4 1 1 2 2 2 2
2 3 3 3 3 3 3 4 4 5 3 3 3 3 3 3 3 4 4 4 4 5 6 7 8 8 8 9 9 10 11 13 14 13 10 9 7 5 2 2 2 2 2
3 3 3 3 3 3 3 3 3 3 3 3 3 3 3 3 3 3 4 4 4 2 5 5 5 8 9 9 10 12 14 17 16 16 13 10 8 7 5 3 2 2 2
3 2 2 2 2 2 2 2 2 2 3 3 3 2 2 3 3 3 3 3 3 3 2 2 2 2 5 9 11 15 17 17 16 17 16 14 11 8 5 3 2 2 2